Torna al catalogo

STARLINK-3529

AttivoComunicazioniVLEO
NORAD 51724·PAYLOAD·🇺🇸 United States

Lanciato Feb 21, 2022 da Cape Canaveral Space Force Station

Loading…

Prossimi Passaggi (prossime 24 ore)

TLE

AggiornatoSource: CelesTrak SupGP

Epoca: Sep 15, 2026, 01:12 UTC

1 51724C 22016L   26258.05048611 -.00017153  00000+0 -52069-3 0  2589
2 51724  53.1593 189.2156 0001321  88.7763 121.4570 15.33545586    11

Traccia STARLINK-3529 in tempo reale con AllMySat

Download on the App Store